{"data":{"norad_id":58598,"intl_designator":"2023-200K","name":"STARLINK-31079","alt_names":[],"object_type":"PAYLOAD","status":"ACTIVE","operator":null,"country":"US","launch_date":"2023-12-19","launch_site_code":"AFETR","launch_vehicle":null,"mission":null,"orbit_class":"UNKNOWN","rcs_meters":null,"size_class":null,"mass_kg":null,"dimensions":null,"purposes":["comms"],"wikipedia_slug":null,"has_3d_model":false,"image_url":null,"decayed_at":null,"tle_current":{"epoch":"2026-09-19T19:51:54.627840Z","epoch_age_seconds":69344,"freshness":"FRESH","line1":"1 58598U 23200K   26262.82771560  .02423738  43051-2  52769-2 0  9991","line2":"2 58598  42.9647  60.5452 0029377 306.7061  53.1118 15.97591671154350","mean_motion":15.97591671,"eccentricity":0.0029377,"inclination_deg":42.9647,"raan_deg":60.5452,"arg_perigee_deg":306.7061,"mean_anomaly_deg":53.1118,"bstar":0.0052769,"rev_number":15435,"period_min":90.135672721594,"perigee_km":261.53988034899,"apogee_km":300.66557745217,"semimajor_km":6659.2397289006,"source":"CELESTRAK","updated_at":"2026-09-20T09:00:41.198475Z"}}}